#timestamp,LO_Frequency,Hit,StdDev 
1600846395.4,286046914.2,P
1600846415.2,286046912.1,P
1600846435.1,286046912.6,P
1600846436.0,286046912.6,Y
1600846455.8,286046996.6,P
1600846475.6,286046999.2,N
1600846495.5,286046996.8,N
1600846515.3,286046997.5,N
1600846535.1,286046993.3,N
1600846555.9,286046995.9,N
1600846575.7,286046992.8,N
1600846595.6,286046993.0,N
1600846615.4,286046992.3,N
1600846635.2,286046993.1,N
1600846655.1,286046988.8,N
1600846656.0,286046988.8,N
1600846675.8,286046991.2,N
1600846695.6,286046989.4,N
1600846715.5,286046987.3,N
1600846735.3,286046986.2,N
1600846755.2,286046982.2,N
1600846775.9,286046982.4,N
1600846795.7,286046983.6,N
1600846815.6,286046985.1,N
1600846835.4,286046985.0,N
1600846855.2,286046984.9,N
1600846875.1,286046982.8,N
1600846876.0,286046982.8,N
1600846895.8,286046981.2,N
1600846915.7,286046981.0,N
1600846935.5,286046979.1,N
1600846955.3,286046978.5,N
1600846975.2,286046974.7,N
1600846995.0,286046972.8,N
1600846995.9,286046972.8,Y
1600847015.8,286046985.8,P
1600847035.6,286046987.8,P
1600847055.4,286046987.7,P
1600847075.3,286046985.5,Y
1600847095.1,286046996.5,P
1600847115.8,286046999.3,N
1600847135.7,286046998.1,N
1600847155.5,286047000.0,N
1600847175.4,286046998.1,N
1600847195.2,286046995.3,N
1600847215.0,286046993.8,N
1600847215.9,286046993.8,N
1600847235.8,286046996.4,N
1600847255.6,286046993.8,N
1600847275.4,286046993.8,N
1600847295.3,286046993.5,N
1600847315.1,286046993.9,N
1600847335.9,286046994.2,N
1600847355.7,286046993.4,N
1600847375.5,286046994.2,N
1600847395.4,286046990.2,Y
1600847415.2,286046995.7,P
1600847435.0,286046995.3,P
1600847435.9,286046995.3,P
1600847455.8,286046994.6,Y
1600847475.6,286046995.3,P
1600847495.5,286046995.9,P
1600847515.3,286046994.3,P
1600847535.1,286046992.6,Y
1600847555.9,286046995.4,P
1600847575.7,286046993.5,P
1600847595.6,286046993.9,P
1600847615.4,286046994.7,Y
1600847635.2,286046997.7,P
1600847655.1,286046995.4,N
1600847656.0,286046995.4,P
1600847675.8,286046995.9,Y
1600847695.7,286046998.3,P
1600847715.5,286047000.9,N
1600847735.3,286046999.1,N
1600847755.2,286046998.0,N
1600847775.9,286046995.6,N
1600847795.7,286046996.0,N
1600847815.6,286046993.9,Y
1600847835.4,286046997.4,P
1600847855.3,286046997.2,P
1600847875.1,286046995.3,P
1600847876.0,286046995.3,Y
1600847895.8,286046998.6,P
1600847915.7,286046998.6,N
1600847935.5,286047000.9,N
1600847955.4,286047001.0,N
1600847975.2,286046998.3,N
1600847995.0,286046998.9,N
1600847995.9,286046998.9,N
